| time (UTC) | temp F | wind direction | speed MPH | gust MPH | rain 1hr in | rain 24hr in | rain mn in | humidity % | barometer mb |
| 20260509102011 | 49 | 181 | 7.0 | 9.0 | 0.00 | 0.05 | 0.00 | 94 | 1003.9 |
| 20260509101513 | 49 | 170 | 5.0 | 7.0 | 0.00 | 0.05 | 0.00 | 93 | 1003.9 |
| 20260509101011 | 48 | 170 | 4.0 | 6.0 | 0.00 | 0.05 | 0.00 | 93 | 1003.9 |
| 20260509100508 | 48 | 169 | 4.0 | 6.0 | 0.00 | 0.05 | 0.00 | 92 | 1003.9 |
| 20260509100015 | 49 | 165 | 4.0 | 6.0 | 0.00 | 0.05 | 0.00 | 93 | 1003.9 |
| 20260509095506 | 49 | 177 | 4.0 | 7.0 | 0.00 | 0.09 | 0.00 | 92 | 1004.0 |
| 20260509095006 | 50 | 177 | 4.0 | 8.0 | 0.00 | 0.09 | 0.00 | 92 | 1004.1 |
| 20260509094516 | 50 | 191 | 5.0 | 8.0 | 0.00 | 0.09 | 0.00 | 93 | 1004.2 |
| 20260509094005 | 50 | 188 | 5.0 | 7.0 | 0.00 | 0.09 | 0.00 | 93 | 1004.2 |
| 20260509093505 | 50 | 184 | 5.0 | 7.0 | 0.00 | 0.09 | 0.00 | 94 | 1004.2 |
| 20260509093005 | 49 | 188 | 4.0 | 6.0 | 0.00 | 0.09 | 0.00 | 93 | 1004.2 |
| 20260509092504 | 49 | 169 | 4.0 | 6.0 | 0.00 | 0.09 | 0.00 | 93 | 1004.2 |
| 20260509092004 | 49 | 182 | 4.0 | 6.0 | 0.00 | 0.09 | 0.00 | 93 | 1004.2 |
| 20260509091503 | 49 | 167 | 3.0 | 6.0 | 0.00 | 0.09 | 0.00 | 92 | 1004.2 |
| 20260509091003 | 49 | 171 | 4.0 | 7.0 | 0.00 | 0.09 | 0.00 | 92 | 1004.2 |
| 20260509090503 | 49 | 164 | 4.0 | 8.0 | 0.00 | 0.09 | 0.00 | 92 | 1004.1 |
| 20260509090003 | 49 | 181 | 5.0 | 8.0 | 0.00 | 0.09 | 0.00 | 92 | 1004.2 |
| 20260509085502 | 49 | 177 | 4.0 | 6.0 | 0.00 | 0.09 | 0.00 | 91 | 1004.1 |
| 20260509085004 | 50 | 166 | 4.0 | 8.0 | 0.00 | 0.09 | 0.00 | 91 | 1004.1 |
| 20260509084502 | 51 | 177 | 4.0 | 11.0 | 0.00 | 0.09 | 0.00 | 91 | 1004.1 |
| 20260509084002 | 51 | 189 | 6.0 | 11.0 | 0.00 | 0.09 | 0.00 | 92 | 1004.0 |
| 20260509083501 | 51 | 201 | 6.0 | 9.0 | 0.00 | 0.09 | 0.00 | 93 | 1004.1 |
| 20260509083101 | 51 | 198 | 7.0 | 9.0 | 0.00 | 0.09 | 0.00 | 93 | 1004.1 |
| 20260509082600 | 50 | 192 | 5.0 | 8.0 | 0.00 | 0.09 | 0.00 | 92 | 1004.2 |
| 20260509082100 | 50 | 188 | 6.0 | 8.0 | 0.00 | 0.09 | 0.00 | 92 | 1004.2 |
| 20260509081559 | 50 | 204 | 6.0 | 7.0 | 0.00 | 0.09 | 0.00 | 93 | 1004.3 |
| 20260509081058 | 49 | 185 | 5.0 | 7.0 | 0.00 | 0.09 | 0.00 | 92 | 1004.3 |
| 20260509080557 | 49 | 188 | 4.0 | 7.0 | 0.00 | 0.09 | 0.00 | 92 | 1004.3 |
| 20260509080100 | 49 | 178 | 4.0 | 6.0 | 0.00 | 0.09 | 0.00 | 92 | 1004.4 |
| 20260509075557 | 49 | 181 | 4.0 | 5.0 | 0.00 | 0.09 | 0.00 | 91 | 1004.4 |
| 20260509075057 | 50 | 197 | 3.0 | 6.0 | 0.00 | 0.09 | 0.00 | 91 | 1004.4 |
| 20260509074600 | 50 | 197 | 4.0 | 6.0 | 0.00 | 0.09 | 0.00 | 92 | 1004.5 |
| 20260509074056 | 50 | 212 | 4.0 | 5.0 | 0.00 | 0.09 | 0.00 | 92 | 1004.6 |
| 20260509073556 | 50 | 214 | 3.0 | 5.0 | 0.00 | 0.09 | 0.00 | 92 | 1004.5 |
| 20260509073058 | 50 | 199 | 3.0 | 5.0 | 0.00 | 0.09 | 0.00 | 92 | 1004.4 |
| 20260509072557 | 50 | 199 | 3.0 | 5.0 | 0.00 | 0.09 | 0.00 | 92 | 1004.4 |
| 20260509072055 | 50 | 178 | 4.0 | 5.0 | 0.00 | 0.09 | 0.00 | 91 | 1004.2 |
| 20260509071608 | 50 | 186 | 3.0 | 5.0 | 0.00 | 0.09 | 0.00 | 91 | 1004.3 |
| 20260509071100 | 50 | 191 | 4.0 | 6.0 | 0.00 | 0.09 | 0.00 | 92 | 1004.3 |
| 20260509070558 | 50 | 188 | 4.0 | 6.0 | 0.00 | 0.09 | 0.00 | 92 | 1004.4 |
| 20260509070056 | 50 | 186 | 3.0 | 5.0 | 0.00 | 0.09 | 0.00 | 91 | 1004.5 |
| 20260509065553 | 50 | 167 | 3.0 | 5.0 | 0.00 | 0.09 | 0.00 | 91 | 1004.5 |
| 20260509065057 | 50 | 167 | 3.0 | 5.0 | 0.00 | 0.09 | 0.00 | 91 | 1004.5 |
| 20260509064555 | 50 | 167 | 3.0 | 5.0 | 0.00 | 0.09 | 0.00 | 90 | 1004.6 |
| 20260509064050 | 50 | 167 | 3.0 | 5.0 | 0.00 | 0.09 | 0.00 | 89 | 1004.7 |
| 20260509063548 | 51 | 181 | 3.0 | 5.0 | 0.00 | 0.09 | 0.00 | 90 | 1004.7 |
| 20260509063049 | 51 | 181 | 4.0 | 6.0 | 0.00 | 0.09 | 0.00 | 90 | 1004.6 |
| 20260509062547 | 51 | 181 | 4.0 | 6.0 | 0.00 | 0.09 | 0.00 | 90 | 1004.8 |
| 20260509062047 | 51 | 181 | 4.0 | 6.0 | 0.00 | 0.09 | 0.00 | 90 | 1004.9 |
| 20260509061550 | 51 | 178 | 4.0 | 6.0 | 0.00 | 0.09 | 0.00 | 89 | 1004.9 |
| 20260509061043 | 52 | 188 | 4.0 | 6.0 | 0.00 | 0.09 | 0.00 | 89 | 1005.1 |
| 20260509060543 | 52 | 192 | 4.0 | 6.0 | 0.00 | 0.09 | 0.00 | 89 | 1005.0 |
| 20260509060052 | 52 | 192 | 4.0 | 6.0 | 0.00 | 0.09 | 0.00 | 89 | 1005.0 |
| 20260509055543 | 52 | 200 | 4.0 | 6.0 | 0.00 | 0.09 | 0.00 | 89 | 1005.2 |
| 20260509055041 | 52 | 211 | 4.0 | 7.0 | 0.00 | 0.09 | 0.00 | 88 | 1005.2 |
| 20260509054549 | 53 | 192 | 5.0 | 7.0 | 0.00 | 0.09 | 0.00 | 88 | 1005.2 |
| 20260509054043 | 53 | 202 | 3.0 | 6.0 | 0.00 | 0.09 | 0.00 | 88 | 1005.2 |
| 20260509053539 | 53 | 202 | 4.0 | 7.0 | 0.00 | 0.09 | 0.00 | 87 | 1005.2 |
| 20260509053039 | 53 | 202 | 5.0 | 7.0 | 0.00 | 0.09 | 0.00 | 87 | 1005.2 |
| 20260509052538 | 53 | 209 | 5.0 | 7.0 | 0.00 | 0.09 | 0.00 | 87 | 1005.2 |
| 20260509052037 | 53 | 204 | 5.0 | 7.0 | 0.00 | 0.09 | 0.00 | 87 | 1005.1 |
| 20260509051539 | 53 | 203 | 5.0 | 8.0 | 0.00 | 0.09 | 0.00 | 87 | 1005.2 |
| 20260509051036 | 53 | 209 | 5.0 | 8.0 | 0.00 | 0.09 | 0.00 | 87 | 1005.2 |
| 20260509050536 | 53 | 207 | 5.0 | 8.0 | 0.00 | 0.09 | 0.00 | 87 | 1005.2 |
| 20260509050047 | 54 | 215 | 4.0 | 7.0 | 0.00 | 0.09 | 0.00 | 87 | 1005.2 |
| 20260509045534 | 54 | 205 | 5.0 | 7.0 | 0.00 | 0.09 | 0.09 | 87 | 1005.1 |
| 20260509045034 | 54 | 179 | 5.0 | 8.0 | 0.00 | 0.09 | 0.09 | 86 | 1005.1 |
| 20260509044543 | 54 | 194 | 5.0 | 8.0 | 0.00 | 0.09 | 0.09 | 86 | 1005.2 |
| 20260509044034 | 54 | 206 | 5.0 | 8.0 | 0.00 | 0.09 | 0.09 | 85 | 1005.4 |
| 20260509043532 | 55 | 204 | 5.0 | 8.0 | 0.00 | 0.09 | 0.09 | 85 | 1005.5 |
| 20260509043033 | 55 | 207 | 5.0 | 10.0 | 0.00 | 0.09 | 0.09 | 85 | 1005.5 |
| 20260509042532 | 55 | 212 | 6.0 | 10.0 | 0.00 | 0.09 | 0.09 | 85 | 1005.5 |
| 20260509042032 | 55 | 211 | 6.0 | 10.0 | 0.00 | 0.09 | 0.09 | 85 | 1005.6 |
| 20260509041532 | 55 | 214 | 5.0 | 10.0 | 0.00 | 0.09 | 0.09 | 85 | 1005.6 |
| 20260509041032 | 55 | 214 | 6.0 | 10.0 | 0.00 | 0.09 | 0.09 | 85 | 1005.6 |
| 20260509040534 | 55 | 217 | 4.0 | 7.0 | 0.00 | 0.09 | 0.09 | 85 | 1005.8 |
| 20260509040032 | 55 | 208 | 5.0 | 7.0 | 0.00 | 0.09 | 0.09 | 85 | 1005.8 |
| 20260509035533 | 55 | 209 | 5.0 | 7.0 | 0.00 | 0.09 | 0.09 | 85 | 1005.8 |
| 20260509035032 | 55 | 211 | 4.0 | 7.0 | 0.00 | 0.09 | 0.09 | 85 | 1005.8 |
| 20260509034532 | 55 | 231 | 5.0 | 7.0 | 0.00 | 0.09 | 0.09 | 85 | 1005.8 |
| 20260509034031 | 55 | 205 | 4.0 | 9.0 | 0.00 | 0.09 | 0.09 | 85 | 1005.9 |
| 20260509033533 | 56 | 208 | 5.0 | 9.0 | 0.00 | 0.09 | 0.09 | 85 | 1005.8 |
| 20260509033031 | 56 | 207 | 5.0 | 8.0 | 0.00 | 0.09 | 0.09 | 84 | 1005.8 |
| 20260509032531 | 56 | 193 | 5.0 | 8.0 | 0.00 | 0.09 | 0.09 | 84 | 1005.8 |
| 20260509032034 | 56 | 195 | 6.0 | 8.0 | 0.00 | 0.09 | 0.09 | 85 | 1005.8 |
| 20260509031532 | 56 | 182 | 5.0 | 7.0 | 0.00 | 0.09 | 0.09 | 85 | 1005.9 |
| 20260509031030 | 56 | 188 | 4.0 | 8.0 | 0.00 | 0.09 | 0.09 | 84 | 1005.8 |
| 20260509030534 | 56 | 192 | 5.0 | 8.0 | 0.00 | 0.09 | 0.09 | 84 | 1005.9 |
| 20260509030033 | 56 | 186 | 5.0 | 8.0 | 0.00 | 0.09 | 0.09 | 84 | 1005.9 |
| 20260509025529 | 56 | 192 | 5.0 | 8.0 | 0.00 | 0.09 | 0.09 | 83 | 1005.9 |
| 20260509025029 | 56 | 188 | 5.0 | 8.0 | 0.00 | 0.09 | 0.09 | 83 | 1006.0 |
| 20260509024530 | 56 | 179 | 5.0 | 8.0 | 0.00 | 0.09 | 0.09 | 83 | 1005.9 |
| 20260509024031 | 56 | 182 | 6.0 | 9.0 | 0.00 | 0.09 | 0.09 | 83 | 1005.9 |
| 20260509023528 | 56 | 202 | 5.0 | 7.0 | 0.00 | 0.09 | 0.09 | 83 | 1006.0 |
| 20260509023031 | 57 | 191 | 5.0 | 8.0 | 0.00 | 0.09 | 0.09 | 82 | 1005.9 |
| 20260509022529 | 57 | 211 | 5.0 | 9.0 | 0.00 | 0.09 | 0.09 | 81 | 1005.8 |
| 20260509022029 | 57 | 197 | 5.0 | 9.0 | 0.00 | 0.09 | 0.09 | 81 | 1005.8 |
| 20260509021529 | 57 | 184 | 6.0 | 10.0 | 0.00 | 0.09 | 0.09 | 81 | 1005.7 |
| 20260509021033 | 58 | 194 | 7.0 | 11.0 | 0.00 | 0.09 | 0.09 | 80 | 1005.7 |
| 20260509020532 | 58 | 206 | 7.0 | 11.0 | 0.00 | 0.09 | 0.09 | 80 | 1005.7 |
| 20260509020028 | 58 | 198 | 7.0 | 11.0 | 0.00 | 0.09 | 0.09 | 80 | 1005.7 |
| 20260509015528 | 58 | 206 | 7.0 | 11.0 | 0.00 | 0.09 | 0.09 | 79 | 1005.6 |
| 20260509015028 | 58 | 190 | 7.0 | 10.0 | 0.00 | 0.09 | 0.09 | 79 | 1005.4 |
| 20260509014528 | 58 | 198 | 6.0 | 9.0 | 0.00 | 0.09 | 0.09 | 78 | 1005.4 |
| 20260509014028 | 58 | 192 | 6.0 | 9.0 | 0.00 | 0.09 | 0.09 | 78 | 1005.5 |
| 20260509013527 | 58 | 210 | 5.0 | 7.0 | 0.00 | 0.09 | 0.09 | 77 | 1005.5 |
| 20260509013038 | 58 | 195 | 6.0 | 7.0 | 0.00 | 0.09 | 0.09 | 76 | 1005.5 |
| 20260509012527 | 58 | 200 | 5.0 | 8.0 | 0.00 | 0.09 | 0.09 | 75 | 1005.5 |
| 20260509012027 | 59 | 192 | 5.0 | 8.0 | 0.00 | 0.09 | 0.09 | 75 | 1005.5 |
| 20260509011527 | 59 | 199 | 5.0 | 8.0 | 0.00 | 0.09 | 0.09 | 73 | 1005.5 |
| 20260509011027 | 60 | 216 | 6.0 | 11.0 | 0.00 | 0.09 | 0.09 | 72 | 1005.5 |
| 20260509010526 | 60 | 215 | 7.0 | 11.0 | 0.00 | 0.09 | 0.09 | 71 | 1005.5 |
| 20260509010026 | 60 | 205 | 7.0 | 11.0 | 0.00 | 0.09 | 0.09 | 70 | 1005.4 |
| 20260509005526 | 60 | 215 | 7.0 | 12.0 | 0.00 | 0.09 | 0.09 | 69 | 1005.4 |
| 20260509005027 | 60 | 214 | 7.0 | 12.0 | 0.00 | 0.09 | 0.09 | 69 | 1005.4 |
| 20260509004526 | 60 | 200 | 8.0 | 12.0 | 0.00 | 0.09 | 0.09 | 68 | 1005.4 |
| 20260509004026 | 61 | 207 | 8.0 | 17.0 | 0.00 | 0.09 | 0.09 | 67 | 1005.4 |
| 20260509003526 | 61 | 234 | 10.0 | 17.0 | 0.00 | 0.09 | 0.09 | 67 | 1005.4 |
| 20260509003026 | 61 | 229 | 9.0 | 15.0 | 0.00 | 0.09 | 0.09 | 68 | 1005.4 |
| 20260509002526 | 61 | 190 | 9.0 | 17.0 | 0.00 | 0.09 | 0.09 | 69 | 1005.4 |
| 20260509002025 | 62 | 209 | 11.0 | 17.0 | 0.00 | 0.09 | 0.09 | 69 | 1005.3 |
| 20260509001525 | 62 | 222 | 10.0 | 15.0 | 0.00 | 0.09 | 0.09 | 69 | 1005.4 |
| 20260509001025 | 62 | 211 | 8.0 | 15.0 | 0.00 | 0.09 | 0.09 | 68 | 1005.3 |
| 20260509000524 | 63 | 203 | 9.0 | 17.0 | 0.00 | 0.09 | 0.09 | 68 | 1005.3 |
| 20260509000025 | 63 | 209 | 12.0 | 17.0 | 0.00 | 0.09 | 0.09 | 66 | 1005.2 |
| 20260508235524 | 63 | 205 | 10.0 | 16.0 | 0.00 | 0.09 | 0.09 | 66 | 1005.2 |
| 20260508235024 | 63 | 213 | 9.0 | 16.0 | 0.00 | 0.09 | 0.09 | 68 | 1005.4 |
| 20260508234524 | 63 | 217 | 10.0 | 16.0 | 0.00 | 0.09 | 0.09 | 67 | 1005.4 |
| 20260508234023 | 63 | 208 | 11.0 | 18.0 | 0.00 | 0.09 | 0.09 | 67 | 1005.4 |
| 20260508233524 | 63 | 185 | 13.0 | 18.0 | 0.00 | 0.09 | 0.09 | 67 | 1005.4 |
| 20260508233023 | 64 | 207 | 11.0 | 20.0 | 0.00 | 0.09 | 0.09 | 65 | 1005.4 |
| 20260508232522 | 65 | 213 | 10.0 | 20.0 | 0.00 | 0.09 | 0.09 | 64 | 1005.5 |
| 20260508232022 | 65 | 200 | 12.0 | 17.0 | 0.00 | 0.09 | 0.09 | 63 | 1005.5 |
| 20260508231522 | 66 | 209 | 10.0 | 17.0 | 0.00 | 0.09 | 0.09 | 62 | 1005.5 |
| 20260508231021 | 66 | 249 | 8.0 | 12.0 | 0.00 | 0.09 | 0.09 | 56 | 1005.5 |
| 20260508230521 | 66 | 222 | 7.0 | 16.0 | 0.00 | 0.09 | 0.09 | 58 | 1005.6 |
| 20260508230040 | 66 | 215 | 11.0 | 17.0 | 0.00 | 0.09 | 0.09 | 56 | 1005.5 |
| 20260508225520 | 66 | 215 | 9.0 | 17.0 | 0.00 | 0.09 | 0.09 | 60 | 1005.5 |
| 20260508225021 | 66 | 198 | 8.0 | 15.0 | 0.00 | 0.09 | 0.09 | 60 | 1005.5 |
| 20260508224547 | 65 | 237 | 8.0 | 13.0 | 0.00 | 0.09 | 0.09 | 59 | 1005.5 |
| 20260508224019 | 66 | 212 | 9.0 | 14.0 | 0.00 | 0.09 | 0.09 | 59 | 1005.5 |
| 20260508223521 | 66 | 202 | 7.0 | 14.0 | 0.00 | 0.09 | 0.09 | 60 | 1005.6 |
| 20260508223027 | 66 | 209 | 8.0 | 11.0 | 0.00 | 0.09 | 0.09 | 60 | 1005.6 |
| 20260508222517 | 66 | 251 | 8.0 | 11.0 | 0.00 | 0.09 | 0.09 | 62 | 1005.6 |
| 20260508222017 | 66 | 175 | 8.0 | 14.0 | 0.00 | 0.09 | 0.09 | 60 | 1005.6 |
| 20260508221516 | 66 | 244 | 7.0 | 14.0 | 0.00 | 0.09 | 0.09 | 60 | 1005.7 |
| 20260508221022 | 66 | 244 | 7.0 | 12.0 | 0.00 | 0.09 | 0.09 | 62 | 1005.7 |
| 20260508220516 | 66 | 236 | 7.0 | 12.0 | 0.00 | 0.09 | 0.09 | 61 | 1005.7 |
| 20260508220015 | 66 | 219 | 6.0 | 11.0 | 0.00 | 0.09 | 0.09 | 60 | 1005.7 |
| 20260508215512 | 66 | 230 | 6.0 | 11.0 | 0.00 | 0.09 | 0.09 | 61 | 1005.7 |
| 20260508215011 | 66 | 238 | 7.0 | 14.0 | 0.00 | 0.09 | 0.09 | 61 | 1005.7 |
| 20260508214511 | 66 | 272 | 5.0 | 14.0 | 0.00 | 0.09 | 0.09 | 64 | 1005.7 |
| 20260508214014 | 66 | 252 | 4.0 | 10.0 | 0.00 | 0.09 | 0.09 | 62 | 1005.8 |
| 20260508213509 | 66 | 237 | 7.0 | 10.0 | 0.00 | 0.09 | 0.09 | 61 | 1005.9 |
| 20260508213008 | 65 | 249 | 6.0 | 12.0 | 0.00 | 0.09 | 0.09 | 63 | 1006.0 |
| 20260508212508 | 65 | 224 | 7.0 | 12.0 | 0.00 | 0.09 | 0.09 | 64 | 1006.0 |
| 20260508212007 | 65 | 234 | 5.0 | 13.0 | 0.00 | 0.09 | 0.09 | 64 | 1006.0 |
| 20260508211509 | 65 | 222 | 9.0 | 13.0 | 0.00 | 0.09 | 0.09 | 63 | 1006.0 |
| 20260508211007 | 65 | 217 | 6.0 | 9.0 | 0.00 | 0.09 | 0.09 | 61 | 1005.9 |
| 20260508210510 | 65 | 264 | 6.0 | 12.0 | 0.00 | 0.09 | 0.09 | 63 | 1006.0 |
| 20260508210005 | 65 | 236 | 8.0 | 12.0 | 0.00 | 0.09 | 0.09 | 65 | 1006.0 |
| 20260508205503 | 64 | 214 | 8.0 | 10.0 | 0.00 | 0.09 | 0.09 | 66 | 1006.0 |
| 20260508205003 | 64 | 235 | 7.0 | 12.0 | 0.00 | 0.09 | 0.09 | 66 | 1006.1 |
| 20260508204508 | 63 | 221 | 7.0 | 12.0 | 0.00 | 0.09 | 0.09 | 68 | 1006.2 |
| 20260508204002 | 63 | 219 | 6.0 | 13.0 | 0.00 | 0.09 | 0.09 | 67 | 1006.2 |
| 20260508203502 | 64 | 219 | 7.0 | 13.0 | 0.00 | 0.09 | 0.09 | 67 | 1006.2 |
| 20260508203116 | 64 | 230 | 9.0 | 14.0 | 0.00 | 0.09 | 0.09 | 68 | 1006.2 |
| 20260508202601 | 63 | 231 | 9.0 | 14.0 | 0.00 | 0.09 | 0.09 | 67 | 1006.3 |
| 20260508202107 | 63 | 215 | 11.0 | 14.0 | 0.00 | 0.09 | 0.09 | 67 | 1006.3 |
| 20260508201600 | 63 | 205 | 8.0 | 13.0 | 0.00 | 0.09 | 0.09 | 68 | 1006.5 |
| 20260508201059 | 64 | 228 | 8.0 | 17.0 | 0.00 | 0.09 | 0.09 | 67 | 1006.5 |
| 20260508200558 | 64 | 208 | 9.0 | 14.0 | 0.00 | 0.09 | 0.09 | 69 | 1006.6 |
| 20260508200057 | 63 | 212 | 7.0 | 14.0 | 0.00 | 0.09 | 0.09 | 69 | 1006.7 |
| 20260508195557 | 63 | 198 | 9.0 | 14.0 | 0.00 | 0.09 | 0.09 | 65 | 1006.8 |
| 20260508195056 | 63 | 204 | 9.0 | 14.0 | 0.00 | 0.09 | 0.09 | 66 | 1006.9 |
| 20260508194556 | 63 | 225 | 8.0 | 14.0 | 0.00 | 0.09 | 0.09 | 66 | 1006.9 |
| 20260508194059 | 63 | 211 | 9.0 | 14.0 | 0.00 | 0.09 | 0.09 | 65 | 1006.9 |
| 20260508193555 | 63 | 191 | 8.0 | 15.0 | 0.00 | 0.09 | 0.09 | 67 | 1007.0 |
| 20260508193128 | 64 | 230 | 9.0 | 15.0 | 0.00 | 0.09 | 0.09 | 66 | 1007.0 |
| 20260508192555 | 64 | 196 | 10.0 | 15.0 | 0.00 | 0.09 | 0.09 | 68 | 1007.0 |
| 20260508192054 | 64 | 183 | 9.0 | 15.0 | 0.00 | 0.09 | 0.09 | 67 | 1007.0 |
| 20260508191554 | 64 | 202 | 8.0 | 12.0 | 0.00 | 0.09 | 0.09 | 65 | 1007.0 |
| 20260508191053 | 64 | 237 | 6.0 | 12.0 | 0.00 | 0.09 | 0.09 | 68 | 1007.1 |
| 20260508190553 | 63 | 257 | 8.0 | 12.0 | 0.00 | 0.09 | 0.09 | 66 | 1007.1 |
| 20260508190054 | 64 | 227 | 6.0 | 10.0 | 0.00 | 0.09 | 0.09 | 65 | 1007.1 |
| 20260508185654 | 64 | 222 | 5.0 | 9.0 | 0.00 | 0.09 | 0.09 | 65 | 1007.1 |
| 20260508185053 | 64 | 248 | 5.0 | 11.0 | 0.00 | 0.09 | 0.09 | 67 | 1007.2 |
| 20260508184614 | 64 | 224 | 7.0 | 12.0 | 0.00 | 0.09 | 0.09 | 66 | 1007.2 |
| 20260508184052 | 64 | 222 | 7.0 | 13.0 | 0.00 | 0.09 | 0.09 | 67 | 1007.3 |
| 20260508183550 | 64 | 211 | 9.0 | 13.0 | 0.00 | 0.09 | 0.09 | 68 | 1007.3 |
| 20260508183051 | 64 | 198 | 7.0 | 11.0 | 0.00 | 0.09 | 0.09 | 67 | 1007.5 |
| 20260508182549 | 64 | 207 | 8.0 | 11.0 | 0.00 | 0.09 | 0.09 | 67 | 1007.6 |
| 20260508182048 | 63 | 221 | 6.0 | 11.0 | 0.00 | 0.09 | 0.09 | 69 | 1007.6 |
| 20260508181548 | 62 | 230 | 6.0 | 11.0 | 0.00 | 0.09 | 0.09 | 71 | 1007.7 |
| 20260508181048 | 62 | 221 | 6.0 | 10.0 | 0.00 | 0.09 | 0.09 | 70 | 1007.9 |
| 20260508180546 | 62 | 257 | 4.0 | 9.0 | 0.00 | 0.09 | 0.09 | 68 | 1007.8 |
| 20260508180056 | 62 | 211 | 5.0 | 7.0 | 0.00 | 0.09 | 0.09 | 65 | 1007.9 |
| 20260508175546 | 63 | 267 | 3.0 | 7.0 | 0.00 | 0.09 | 0.09 | 68 | 1007.8 |
| 20260508175046 | 62 | 227 | 4.0 | 7.0 | 0.00 | 0.09 | 0.09 | 64 | 1007.9 |
| 20260508174601 | 62 | 261 | 2.0 | 7.0 | 0.00 | 0.09 | 0.09 | 66 | 1007.8 |
| 20260508174045 | 62 | 221 | 3.0 | 7.0 | 0.00 | 0.09 | 0.09 | 64 | 1007.9 |
| 20260508173544 | 62 | 234 | 3.0 | 7.0 | 0.00 | 0.09 | 0.09 | 65 | 1007.9 |
| 20260508173043 | 63 | 219 | 3.0 | 7.0 | 0.00 | 0.09 | 0.09 | 64 | 1008.1 |
| 20260508172543 | 63 | 201 | 3.0 | 7.0 | 0.00 | 0.09 | 0.09 | 65 | 1008.2 |
| 20260508172042 | 62 | 258 | 3.0 | 7.0 | 0.00 | 0.09 | 0.09 | 64 | 1008.0 |
| 20260508171607 | 62 | 265 | 3.0 | 9.0 | 0.00 | 0.09 | 0.09 | 67 | 1008.2 |
| 20260508171041 | 62 | 238 | 4.0 | 9.0 | 0.00 | 0.09 | 0.09 | 65 | 1008.4 |
| 20260508170541 | 62 | 286 | 3.0 | 7.0 | 0.00 | 0.09 | 0.09 | 65 | 1008.4 |
| 20260508170041 | 62 | 243 | 3.0 | 7.0 | 0.00 | 0.09 | 0.09 | 66 | 1008.5 |
| 20260508165639 | 62 | 255 | 5.0 | 10.0 | 0.00 | 0.09 | 0.09 | 66 | 1008.6 |
| 20260508165038 | 63 | 237 | 4.0 | 10.0 | 0.00 | 0.09 | 0.09 | 65 | 1008.7 |
| 20260508164540 | 63 | 228 | 6.0 | 10.0 | 0.00 | 0.09 | 0.09 | 65 | 1008.7 |
| 20260508164037 | 63 | 178 | 6.0 | 13.0 | 0.00 | 0.09 | 0.09 | 64 | 1008.8 |
| 20260508163536 | 63 | 188 | 8.0 | 12.0 | 0.00 | 0.09 | 0.09 | 67 | 1008.9 |
| 20260508163036 | 63 | 198 | 5.0 | 14.0 | 0.00 | 0.09 | 0.09 | 66 | 1008.9 |
| 20260508162536 | 63 | 227 | 7.0 | 14.0 | 0.00 | 0.09 | 0.09 | 65 | 1009.0 |
| 20260508162035 | 63 | 237 | 7.0 | 10.0 | 0.00 | 0.09 | 0.09 | 65 | 1008.9 |
| 20260508161542 | 63 | 206 | 6.0 | 9.0 | 0.00 | 0.09 | 0.09 | 67 | 1009.0 |
| 20260508161034 | 63 | 199 | 6.0 | 9.0 | 0.00 | 0.09 | 0.09 | 68 | 1008.9 |
| 20260508160533 | 62 | 254 | 4.0 | 9.0 | 0.00 | 0.09 | 0.09 | 66 | 1009.0 |
| 20260508160036 | 62 | 213 | 6.0 | 9.0 | 0.00 | 0.09 | 0.09 | 67 | 1009.0 |
| 20260508155531 | 62 | 199 | 6.0 | 10.0 | 0.00 | 0.09 | 0.09 | 69 | 1009.2 |
| 20260508155030 | 62 | 197 | 6.0 | 10.0 | 0.00 | 0.09 | 0.09 | 68 | 1009.2 |
| 20260508154530 | 61 | 182 | 5.0 | 11.0 | 0.00 | 0.09 | 0.09 | 71 | 1009.2 |
| 20260508154029 | 62 | 184 | 6.0 | 12.0 | 0.00 | 0.09 | 0.09 | 70 | 1009.2 |
| 20260508153531 | 61 | 173 | 5.0 | 10.0 | 0.00 | 0.09 | 0.09 | 70 | 1009.3 |
| 20260508153036 | 61 | 186 | 5.0 | 10.0 | 0.00 | 0.09 | 0.09 | 72 | 1009.4 |
| 20260508152529 | 61 | 172 | 4.0 | 9.0 | 0.00 | 0.09 | 0.09 | 73 | 1009.5 |
| 20260508152024 | 60 | 200 | 5.0 | 9.0 | 0.00 | 0.09 | 0.09 | 74 | 1009.6 |
| 20260508151536 | 60 | 140 | 4.0 | 9.0 | 0.00 | 0.09 | 0.09 | 75 | 1009.5 |
| 20260508151028 | 60 | 165 | 6.0 | 11.0 | 0.00 | 0.09 | 0.09 | 73 | 1009.5 |
| 20260508150523 | 60 | 147 | 4.0 | 11.0 | 0.00 | 0.09 | 0.09 | 73 | 1009.5 |
| 20260508150026 | 60 | 178 | 6.0 | 11.0 | 0.00 | 0.09 | 0.09 | 73 | 1009.5 |
| 20260508145523 | 60 | 169 | 7.0 | 11.0 | 0.00 | 0.09 | 0.09 | 71 | 1009.5 |
| 20260508145026 | 60 | 153 | 5.0 | 8.0 | 0.00 | 0.09 | 0.09 | 74 | 1009.6 |
| 20260508144521 | 59 | 177 | 5.0 | 8.0 | 0.00 | 0.09 | 0.09 | 74 | 1009.6 |
| 20260508144020 | 59 | 167 | 5.0 | 9.0 | 0.00 | 0.09 | 0.09 | 74 | 1009.7 |
| 20260508143520 | 59 | 187 | 6.0 | 10.0 | 0.00 | 0.09 | 0.09 | 73 | 1009.7 |
| 20260508143018 | 59 | 158 | 6.0 | 10.0 | 0.00 | 0.09 | 0.09 | 75 | 1009.8 |
| 20260508142523 | 59 | 165 | 7.0 | 11.0 | 0.00 | 0.09 | 0.09 | 76 | 1009.8 |
| 20260508142018 | 59 | 165 | 7.0 | 11.0 | 0.00 | 0.09 | 0.09 | 76 | 1009.8 |
| 20260508141517 | 59 | 175 | 7.0 | 10.0 | 0.00 | 0.09 | 0.09 | 75 | 1009.8 |
| 20260508141017 | 59 | 140 | 5.0 | 9.0 | 0.00 | 0.09 | 0.09 | 77 | 1009.8 |
| 20260508140514 | 58 | 167 | 5.0 | 9.0 | 0.00 | 0.09 | 0.09 | 78 | 1009.9 |
| 20260508140013 | 58 | 167 | 5.0 | 8.0 | 0.00 | 0.09 | 0.09 | 79 | 1009.8 |
| 20260508135515 | 58 | 171 | 4.0 | 7.0 | 0.00 | 0.09 | 0.09 | 80 | 1009.9 |
| 20260508135012 | 58 | 146 | 4.0 | 7.0 | 0.00 | 0.09 | 0.09 | 80 | 1010.0 |
| 20260508134510 | 57 | 151 | 5.0 | 8.0 | 0.00 | 0.09 | 0.09 | 81 | 1009.8 |
| 20260508134010 | 56 | 170 | 5.0 | 8.0 | 0.00 | 0.09 | 0.09 | 82 | 1009.8 |
| 20260508133509 | 56 | 145 | 5.0 | 8.0 | 0.00 | 0.09 | 0.09 | 83 | 1009.9 |
| 20260508133009 | 55 | 163 | 5.0 | 8.0 | 0.00 | 0.09 | 0.09 | 83 | 1009.9 |
| 20260508132506 | 55 | 161 | 5.0 | 8.0 | 0.00 | 0.09 | 0.09 | 84 | 1009.8 |
| 20260508132008 | 55 | 142 | 4.0 | 8.0 | 0.00 | 0.09 | 0.09 | 85 | 1009.8 |
| 20260508131505 | 54 | 144 | 4.0 | 8.0 | 0.00 | 0.09 | 0.09 | 85 | 1009.8 |
| 20260508131004 | 54 | 109 | 5.0 | 9.0 | 0.00 | 0.09 | 0.09 | 86 | 1009.9 |
| 20260508130506 | 54 | 157 | 5.0 | 9.0 | 0.00 | 0.09 | 0.09 | 85 | 1010.0 |
| 20260508130004 | 54 | 149 | 7.0 | 9.0 | 0.00 | 0.09 | 0.09 | 85 | 1010.1 |
| 20260508125502 | 54 | 132 | 6.0 | 9.0 | 0.00 | 0.09 | 0.09 | 86 | 1010.0 |
| 20260508125002 | 54 | 135 | 5.0 | 9.0 | 0.00 | 0.09 | 0.09 | 88 | 1010.0 |
| 20260508124501 | 54 | 136 | 6.0 | 9.0 | 0.00 | 0.09 | 0.09 | 89 | 1010.1 |
| 20260508124101 | 53 | 142 | 5.0 | 9.0 | 0.00 | 0.09 | 0.09 | 90 | 1010.2 |
| 20260508123559 | 53 | 148 | 5.0 | 8.0 | 0.00 | 0.09 | 0.09 | 92 | 1010.2 |
| 20260508123104 | 52 | 136 | 4.0 | 7.0 | 0.00 | 0.09 | 0.09 | 93 | 1010.2 |
| 20260508122558 | 52 | 144 | 3.0 | 6.0 | 0.00 | 0.09 | 0.09 | 93 | 1010.3 |
| 20260508122057 | 52 | 136 | 3.0 | 4.0 | 0.01 | 0.09 | 0.09 | 93 | 1010.4 |
| 20260508121601 | 52 | 178 | 2.0 | 4.0 | 0.01 | 0.09 | 0.09 | 93 | 1010.3 |
| 20260508121058 | 51 | 178 | 0.0 | 0.0 | 0.01 | 0.09 | 0.09 | 93 | 1010.4 |
| 20260508120600 | 51 | 178 | 0.0 | 1.0 | 0.01 | 0.09 | 0.09 | 93 | 1010.3 |
| 20260508120100 | 51 | 178 | 0.0 | 2.0 | 0.01 | 0.09 | 0.09 | 93 | 1010.3 |
| 20260508115556 | 51 | 178 | 0.0 | 2.0 | 0.02 | 0.09 | 0.09 | 93 | 1010.3 |
| 20260508115056 | 51 | 178 | 1.0 | 3.0 | 0.03 | 0.09 | 0.09 | 93 | 1010.3 |
| 20260508114606 | 50 | 178 | 2.0 | 3.0 | 0.03 | 0.09 | 0.09 | 92 | 1010.2 |
| 20260508114056 | 50 | 178 | 2.0 | 3.0 | 0.03 | 0.09 | 0.09 | 92 | 1010.1 |
| 20260508113559 | 50 | 178 | 1.0 | 2.0 | 0.03 | 0.09 | 0.09 | 92 | 1010.2 |
| 20260508113105 | 50 | 178 | 1.0 | 2.0 | 0.03 | 0.09 | 0.09 | 92 | 1010.2 |
| 20260508112558 | 50 | 178 | 0.0 | 0.0 | 0.03 | 0.09 | 0.09 | 92 | 1010.3 |
| 20260508112055 | 50 | 178 | 0.0 | 2.0 | 0.02 | 0.08 | 0.08 | 92 | 1010.3 |
| 20260508111601 | 50 | 178 | 0.0 | 2.0 | 0.03 | 0.08 | 0.08 | 92 | 1010.1 |
| 20260508111055 | 50 | 178 | 0.0 | 2.0 | 0.03 | 0.08 | 0.08 | 92 | 1010.1 |
| 20260508110554 | 51 | 178 | 0.0 | 2.0 | 0.03 | 0.08 | 0.08 | 91 | 1010.2 |
| 20260508110100 | 51 | 178 | 1.0 | 2.0 | 0.03 | 0.08 | 0.08 | 92 | 1010.2 |
| 20260508105553 | 51 | 178 | 0.0 | 3.0 | 0.04 | 0.07 | 0.07 | 92 | 1010.4 |
| 20260508105054 | 51 | 178 | 1.0 | 3.0 | 0.04 | 0.06 | 0.06 | 92 | 1010.3 |
| 20260508104555 | 51 | 178 | 1.0 | 5.0 | 0.05 | 0.06 | 0.06 | 92 | 1010.1 |
| 20260508104053 | 50 | 178 | 2.0 | 6.0 | 0.05 | 0.06 | 0.06 | 92 | 1010.1 |
| 20260508103553 | 50 | 179 | 4.0 | 6.0 | 0.06 | 0.06 | 0.06 | 92 | 1010.1 |
| 20260508103053 | 50 | 173 | 3.0 | 5.0 | 0.06 | 0.06 | 0.06 | 92 | 1010.0 |
| 20260508102552 | 50 | 173 | 3.0 | 5.0 | 0.06 | 0.06 | 0.06 | 91 | 1010.0 |